Location: Lalanga
(4.5882°N, 32.9072°E)
Time: 21:56:40
(UTC+00:00)

Cosmos 2221 - Pass Details

Date: 24 January 2020
Orbit: 593 x 616 km, 82.5° (Epoch: 19 February)

Event Time Altitude Azimuth Distance (km) Brightness Sun altitude
Exits shadow 17:36:59 55° 338° (NNW) 724 2.8 -24.3°
Maximum altitude 17:37:51 78° 266° (W) 620 2.5 -24.5°
Drops below altitude 10° 17:42:10 10° 180° (S) 1,954 5.3 -25.5°
Sets 17:44:24 0° 179° (S) 2,862 6.2 -26.0°
